This is the latest recevied weather packets stored in our database for station/object K8GLX. If no packets are shown the sender has not sent any weather packets the latest 10 day(s).
| Time | Temp. | Humidity | Pressure | Rain* | Wind** | Luminosity | Snow |
|---|---|---|---|---|---|---|---|
| 1777243028 | 13.33° C | 71% | 1020 hPa | 0 mm | - | 71 W/m² | - |
| 1777242734 | 13.33° C | 71% | 1020.3 hPa | 0 mm | - | 115 W/m² | - |
| 1777242431 | 13.33° C | 71% | 1020.1 hPa | 0 mm | - | 144 W/m² | - |
| 1777242366 | 13.89° C | 71% | 1020.5 hPa | 0 mm | - | 161 W/m² | - |
| 1777241946 | 13.33° C | 71% | 1020.5 hPa | 0 mm | - | 174 W/m² | - |
| 1777241660 | 13.33° C | 71% | 1020.4 hPa | 0 mm | - | 195 W/m² | - |
| 1777241228 | 13.33° C | 71% | 1020.3 hPa | 0 mm | - | 217 W/m² | - |
| 1777241062 | 13.33° C | 71% | 1020.5 hPa | 0 mm | - | 233 W/m² | - |
| 1777240628 | 13.33° C | 71% | 1020.4 hPa | 0 mm | - | 250 W/m² | - |
| 1777240334 | 13.89° C | 71% | 1020.5 hPa | 0 mm | - | 264 W/m² | - |
| 1777240028 | 13.33° C | 72% | 1020 hPa | 0 mm | - | 280 W/m² | - |
| 1777239737 | 13.33° C | 72% | 1020.1 hPa | 0 mm | - | 296 W/m² | - |
| 1777239428 | 13.89° C | 70% | 1020.1 hPa | 0 mm | - | 309 W/m² | - |
| 1777239133 | 13.89° C | 70% | 1019.9 hPa | 0 mm | - | 323 W/m² | - |
| 1777238829 | 13.89° C | 70% | 1019.7 hPa | 0 mm | - | 338 W/m² | - |
| 1777238660 | 13.89° C | 70% | 1019.8 hPa | 0 mm | - | 356 W/m² | - |
| 1777238228 | 13.33° C | 71% | 1019.8 hPa | 0 mm | - | 373 W/m² | - |
| 1777237934 | 13.33° C | 72% | 1019.6 hPa | 0 mm | - | 389 W/m² | - |
| 1777237743 | 13.33° C | 72% | 1019.5 hPa | 0 mm | - | 407 W/m² | - |
| 1777237461 | 13.33° C | 73% | 1019.6 hPa | 0 mm | - | 423 W/m² | - |
| 1777237028 | 13.33° C | 72% | 1019.7 hPa | 0 mm | - | 442 W/m² | - |
| 1777236734 | 13.33° C | 73% | 1019.6 hPa | 0 mm | - | 460 W/m² | - |
| 1777236428 | 12.78° C | 73% | 1019.6 hPa | 0 mm | - | 477 W/m² | - |
| 1777236261 | 12.78° C | 74% | 1019.6 hPa | 0 mm | - | 493 W/m² | - |
| 1777235828 | 13.33° C | 73% | 1019.6 hPa | 0 mm | - | 510 W/m² | - |
* Rain latest hour (hover to see other rain measurements)
** Current wind speed in m/s (hover to see current wind gust speed)